Weather History for Sevilla, Spain

Change the Weather History Date:

Friday, November 11, 2011

  Actual Average Record
Temperature  
Mean Temperature 63 °F -  
Max Temperature 73 °F 64 °F 77 °F (2000)
Min Temperature 53 °F 47 °F 33 °F (2001)
Degree Days  
Heating Degree Days 2    
Growing Degree Days 13 (Base 50)    
Moisture  
Dew Point 52 °F    
Average Humidity 71    
Maximum Humidity 94    
Minimum Humidity 41    
Precipitation  
Precipitation 0.00 in - - ()
Sea Level Pressure  
Sea Level Pressure 30.01 in    
Wind  
Wind Speed 2 mph ()    
Max Wind Speed 5 mph    
Max Gust Speed -    
Visibility 5.4 miles    
Events      
Averages and records for this station are not official NWS values.
T = Trace of Precipitation, MM = Missing Value Source: Averaged Metar Reports

Daily Weather History Graph

Daily Weather History Graph

Search for Another Location

Airport:

Trip Planner

Search our weather history database for the weather conditions in past years. The results will help you decide how hot, cold, wet, or windy it might be!

Date:

Astronomy

Nov. 11, 2011 Rise Set
Actual Time 7:58 AM CET 6:16 PM CET
Civil Twilight 7:30 AM CET 6:43 PM CET
Nautical Twilight 6:59 AM CET 7:15 PM CET
Astronomical Twilight 6:28 AM CET 7:46 PM CET
Moon 6:37 PM CET (11/11) 8:32 AM CET (11/11)
Length of Visible Light 11h 13m
Length of Day
10h 18m
Full, 100% of the Moon is Illuminated
Nov 11
Full
Nov 18
Last Quarter
Nov 25
New
Dec 2
First Quarter
Dec 10
Full

Hourly Weather History & Observations

Time (CET) Temp. Dew Point Humidity Pressure Visibility Wind Dir Wind Speed Gust Speed Precip Events Conditions
12:00 AM 57.2 °F 53.6 °F 88% 30.01 in - Calm Calm - N/A   Clear
12:30 AM 57.2 °F 53.6 °F 88% 30.01 in - Calm Calm - N/A   Clear
1:00 AM 55.4 °F 53.6 °F 94% 30.01 in - East 1.2 mph - N/A   Clear
4:30 AM 53.6 °F 51.8 °F 94% 29.98 in - NE 2.3 mph - N/A   Clear
5:00 AM 53.6 °F 51.8 °F 94% 29.98 in - NE 2.3 mph - N/A   Clear
5:30 AM 53.6 °F 51.8 °F 94% 29.98 in 5.6 mi North 3.5 mph - N/A   Unknown
6:00 AM 53.6 °F 51.8 °F 94% 29.98 in 5.6 mi NNE 3.5 mph - N/A   Unknown
6:30 AM 53.6 °F 51.8 °F 94% 29.98 in 5.6 mi Calm Calm - N/A   Unknown
7:00 AM 53.6 °F 51.8 °F 94% 29.98 in 5.6 mi NNE 2.3 mph - N/A   Unknown
7:30 AM 53.6 °F 51.8 °F 94% 30.01 in 5.6 mi NNE 3.5 mph - N/A   Unknown
8:00 AM 53.6 °F 51.8 °F 94% 30.01 in - Variable 1.2 mph - N/A   Clear
8:30 AM 53.6 °F 51.8 °F 94% 30.01 in - North 2.3 mph - N/A   Clear
9:00 AM 53.6 °F 51.8 °F 94% 30.01 in - NNE 3.5 mph - N/A   Clear
9:30 AM 55.4 °F 53.6 °F 94% 30.04 in 5.0 mi NNE 2.3 mph - N/A   Unknown
10:00 AM 57.2 °F 53.6 °F 88% 30.04 in 5.0 mi NE 2.3 mph - N/A   Unknown
10:30 AM 60.8 °F 55.4 °F 82% 30.04 in - Variable 1.2 mph - N/A   Clear
11:00 AM 62.6 °F 55.4 °F 77% 30.04 in - Calm Calm - N/A   Clear
11:30 AM 64.4 °F 55.4 °F 73% 30.04 in - NNW 1.2 mph - N/A   Clear
12:00 PM 66.2 °F 53.6 °F 64% 30.04 in - Variable 1.2 mph - N/A   Clear
12:30 PM 69.8 °F 51.8 °F 53% 30.04 in - Variable 1.2 mph - N/A   Clear
1:00 PM 69.8 °F 50.0 °F 49% 30.04 in - Calm Calm - N/A   Clear
1:30 PM 71.6 °F 50.0 °F 46% 30.01 in - Variable 2.3 mph - N/A   Clear
2:00 PM 71.6 °F 50.0 °F 46% 30.01 in - SW 4.6 mph - N/A   Clear
2:30 PM 73.4 °F 48.2 °F 41% 30.01 in - SSW 4.6 mph - N/A   Clear
3:00 PM 73.4 °F 50.0 °F 44% 30.01 in - SW 4.6 mph - N/A   Clear
3:30 PM 73.4 °F 50.0 °F 44% 29.98 in - SW 3.5 mph - N/A   Clear
4:00 PM 73.4 °F 50.0 °F 44% 29.98 in - Variable 2.3 mph - N/A   Clear
4:30 PM 73.4 °F 50.0 °F 44% 29.98 in - SW 3.5 mph - N/A   Clear
5:00 PM 73.4 °F 50.0 °F 44% 29.98 in - Variable 2.3 mph - N/A   Clear
5:30 PM 73.4 °F 50.0 °F 44% 29.98 in - Variable 1.2 mph - N/A   Clear
6:00 PM 71.6 °F 50.0 °F 46% 29.98 in - Calm Calm - N/A   Clear
6:30 PM 69.8 °F 50.0 °F 49% 29.98 in - Variable 2.3 mph - N/A   Clear
7:00 PM 68.0 °F 51.8 °F 56% 30.01 in - Calm Calm - N/A   Clear
7:30 PM 66.2 °F 53.6 °F 64% 30.01 in - NE 2.3 mph - N/A   Clear
8:00 PM 66.2 °F 53.6 °F 64% 30.01 in - Variable 2.3 mph - N/A   Clear
8:30 PM 64.4 °F 53.6 °F 68% 30.01 in - East 3.5 mph - N/A   Clear
9:00 PM 62.6 °F 53.6 °F 72% 30.01 in - Variable 2.3 mph - N/A   Clear
9:30 PM 64.4 °F 53.6 °F 68% 30.01 in - Calm Calm - N/A   Clear
10:00 PM 62.6 °F 55.4 °F 77% 30.04 in - East 2.3 mph - N/A   Clear
10:30 PM 64.4 °F 53.6 °F 68% 30.04 in - North 1.2 mph - N/A   Clear
11:00 PM 62.6 °F 55.4 °F 77% 30.04 in - NNE 2.3 mph - N/A   Clear
11:30 PM 60.8 °F 53.6 °F 77% 30.04 in - NNE 3.5 mph - N/A   Clear